| time (UTC) | temp C | wind direction | speed KPH | gust KPH | rain 1hr cm | rain 24hr cm | rain mn cm | humidity % | barometer mb |
| 20260510061234 | 22 | 184 | 0.0 | 0.0 | 0.00 | 0.00 | 0.00 | 97 | 1014.6 |
| 20260510060730 | 22 | 315 | 0.0 | 0.0 | 0.00 | 0.00 | 0.00 | 97 | 1014.6 |
| 20260510060227 | 22 | 281 | 0.0 | 0.0 | 0.00 | 0.00 | 0.00 | 97 | 1014.7 |
| 20260510055723 | 22 | 276 | 0.0 | 0.0 | 0.00 | 0.00 | 0.00 | 97 | 1014.7 |
| 20260510055222 | 22 | 236 | 0.0 | 0.0 | 0.00 | 0.00 | 0.00 | 97 | 1014.8 |
| 20260510054722 | 22 | 163 | 0.0 | 0.0 | 0.00 | 0.00 | 0.00 | 97 | 1014.5 |
| 20260510054218 | 22 | 303 | 0.0 | 0.0 | 0.00 | 0.00 | 0.00 | 97 | 1014.7 |
| 20260510053717 | 22 | 328 | 0.0 | 0.0 | 0.00 | 0.00 | 0.00 | 97 | 1014.7 |
| 20260510053214 | 22 | 304 | 0.0 | 0.0 | 0.00 | 0.00 | 0.00 | 97 | 1014.5 |
| 20260510052710 | 22 | 241 | 0.0 | 0.0 | 0.00 | 0.00 | 0.00 | 97 | 1014.6 |
| 20260510052206 | 22 | 260 | 0.0 | 1.6 | 0.00 | 0.00 | 0.00 | 97 | 1014.7 |
| 20260510051702 | 22 | 269 | 0.0 | 1.6 | 0.00 | 0.00 | 0.00 | 97 | 1015.1 |
| 20260510051158 | 22 | 212 | 0.0 | 1.6 | 0.00 | 0.00 | 0.00 | 97 | 1014.9 |
| 20260510050656 | 22 | 171 | 1.6 | 1.6 | 0.00 | 0.00 | 0.00 | 97 | 1014.7 |
| 20260510050153 | 22 | 226 | 0.0 | 1.6 | 0.00 | 0.00 | 0.00 | 97 | 1014.8 |
| 20260510045649 | 22 | 184 | 1.6 | 3.2 | 0.00 | 1.63 | 1.63 | 97 | 1014.8 |
| 20260510045146 | 22 | 289 | 0.0 | 3.2 | 0.00 | 1.63 | 1.63 | 97 | 1014.9 |
| 20260510044642 | 22 | 308 | 0.0 | 0.0 | 0.00 | 1.63 | 1.63 | 97 | 1015.0 |
| 20260510044140 | 22 | 333 | 0.0 | 0.0 | 0.00 | 1.63 | 1.63 | 97 | 1014.9 |
| 20260510043636 | 22 | 287 | 0.0 | 0.0 | 0.00 | 1.63 | 1.63 | 97 | 1015.0 |
| 20260510043132 | 21 | 219 | 0.0 | 0.0 | 0.00 | 1.63 | 1.63 | 97 | 1014.9 |
| 20260510042630 | 21 | 345 | 0.0 | 0.0 | 0.00 | 1.63 | 1.63 | 97 | 1015.1 |
| 20260510042126 | 21 | 299 | 0.0 | 1.6 | 0.00 | 1.63 | 1.63 | 97 | 1014.9 |
| 20260510041623 | 21 | 201 | 0.0 | 0.0 | 0.00 | 1.63 | 1.63 | 97 | 1014.7 |
| 20260510041120 | 21 | 331 | 0.0 | 0.0 | 0.00 | 1.63 | 1.63 | 97 | 1015.1 |
| 20260510040618 | 21 | 333 | 0.0 | 0.0 | 0.00 | 1.63 | 1.63 | 96 | 1014.9 |
| 20260510040114 | 21 | 94 | 0.0 | 0.0 | 0.00 | 1.63 | 1.63 | 97 | 1014.9 |
| 20260510035609 | 21 | 149 | 0.0 | 0.0 | 0.00 | 1.63 | 1.63 | 96 | 1014.9 |
| 20260510035104 | 21 | 329 | 0.0 | 0.0 | 0.00 | 1.63 | 1.63 | 96 | 1015.0 |
| 20260510034602 | 21 | 286 | 0.0 | 0.0 | 0.00 | 1.63 | 1.63 | 96 | 1015.1 |
| 20260510034059 | 21 | 307 | 0.0 | 0.0 | 0.00 | 1.63 | 1.63 | 96 | 1014.9 |
| 20260510033555 | 21 | 32 | 0.0 | 0.0 | 0.00 | 1.63 | 1.63 | 96 | 1015.2 |
| 20260510033053 | 21 | 157 | 4.8 | 4.8 | 0.00 | 1.63 | 1.63 | 96 | 1014.9 |
| 20260510032549 | 21 | 304 | 0.0 | 4.8 | 0.00 | 1.63 | 1.63 | 96 | 1015.2 |
| 20260510032044 | 21 | 218 | 0.0 | 3.2 | 0.00 | 1.63 | 1.63 | 96 | 1015.2 |
| 20260510031539 | 22 | 55 | 0.0 | 3.2 | 0.00 | 1.63 | 1.63 | 96 | 1015.2 |
| 20260510031035 | 22 | 22 | 0.0 | 0.0 | 0.00 | 1.63 | 1.63 | 96 | 1015.5 |
| 20260510030531 | 22 | 341 | 0.0 | 8.0 | 0.00 | 1.63 | 1.63 | 96 | 1015.3 |
| 20260510030029 | 23 | 102 | 1.6 | 3.2 | 0.00 | 1.63 | 1.63 | 96 | 1015.1 |
| 20260510025526 | 23 | 3 | 1.6 | 4.8 | 0.00 | 1.63 | 1.63 | 96 | 1014.8 |
| 20260510025023 | 23 | 304 | 1.6 | 3.2 | 0.00 | 1.63 | 1.63 | 97 | 1014.7 |
| 20260510024520 | 24 | 171 | 0.0 | 4.8 | 0.00 | 1.63 | 1.63 | 97 | 1014.6 |
| 20260510024016 | 23 | 77 | 1.6 | 8.0 | 0.00 | 1.63 | 1.63 | 97 | 1014.5 |
| 20260510023512 | 23 | 146 | 1.6 | 3.2 | 0.00 | 1.63 | 1.63 | 97 | 1014.6 |
| 20260510023009 | 23 | 170 | 0.0 | 3.2 | 0.00 | 1.63 | 1.63 | 97 | 1014.3 |
| 20260510022508 | 23 | 19 | 0.0 | 1.6 | 0.00 | 1.63 | 1.63 | 97 | 1013.8 |
| 20260510022008 | 23 | 146 | 0.0 | 0.0 | 0.00 | 1.63 | 1.63 | 97 | 1013.9 |
| 20260510021505 | 22 | 278 | 0.0 | 0.0 | 0.00 | 1.63 | 1.63 | 96 | 1013.6 |
| 20260510021003 | 22 | 207 | 0.0 | 0.0 | 0.00 | 1.63 | 1.63 | 96 | 1013.3 |
| 20260510020456 | 22 | 289 | 0.0 | 0.0 | 0.00 | 1.63 | 1.63 | 96 | 1013.2 |
| 20260510015952 | 22 | 57 | 0.0 | 1.6 | 0.13 | 1.63 | 1.63 | 96 | 1013.0 |
| 20260510015448 | 22 | 317 | 0.0 | 0.0 | 0.00 | 1.60 | 1.60 | 96 | 1012.9 |
| 20260510014944 | 22 | 265 | 0.0 | 1.6 | 0.00 | 1.60 | 1.60 | 96 | 1013.0 |
| 20260510014442 | 22 | 207 | 1.6 | 1.6 | 0.00 | 1.60 | 1.60 | 95 | 1012.7 |
| 20260510013938 | 22 | 293 | 0.0 | 0.0 | 0.00 | 1.60 | 1.60 | 95 | 1012.7 |
| 20260510013432 | 22 | 329 | 0.0 | 0.0 | 0.00 | 1.60 | 1.60 | 95 | 1012.2 |
| 20260510012928 | 22 | 218 | 0.0 | 1.6 | 0.30 | 1.60 | 1.60 | 95 | 1012.5 |
| 20260510012423 | 22 | 334 | 0.0 | 0.0 | 1.55 | 1.60 | 1.60 | 94 | 1012.4 |
| 20260510011918 | 22 | 297 | 0.0 | 0.0 | 3.25 | 1.55 | 1.55 | 94 | 1012.3 |
| 20260510011414 | 22 | 4 | 0.0 | 1.6 | 2.77 | 1.32 | 1.32 | 93 | 1012.5 |
| 20260510010910 | 22 | 341 | 0.0 | 3.2 | 2.16 | 0.99 | 0.99 | 92 | 1012.6 |
| 20260510010408 | 22 | 342 | 1.6 | 1.6 | 2.69 | 0.84 | 0.84 | 91 | 1012.6 |
| 20260510005904 | 23 | 350 | 4.8 | 4.8 | 3.48 | 0.64 | 0.64 | 89 | 1012.4 |
| 20260510005400 | 25 | 250 | 8.0 | 11.3 | 2.11 | 0.36 | 0.36 | 84 | 1012.5 |
| 20260510004858 | 28 | 249 | 4.8 | 9.7 | 0.13 | 0.03 | 0.03 | 72 | 1012.1 |
| 20260510004355 | 30 | 284 | 1.6 | 3.2 | 0.00 | 0.00 | 0.00 | 65 | 1012.0 |
| 20260510003853 | 30 | 218 | 1.6 | 3.2 | 0.00 | 0.00 | 0.00 | 65 | 1011.8 |
| 20260510003350 | 30 | 152 | 3.2 | 4.8 | 0.00 | 0.00 | 0.00 | 68 | 1011.7 |
| 20260510002848 | 30 | 271 | 0.0 | 0.0 | 0.00 | 0.00 | 0.00 | 69 | 1011.4 |
| 20260510002346 | 30 | 156 | 0.0 | 1.6 | 0.00 | 0.00 | 0.00 | 69 | 1011.3 |
| 20260510001842 | 30 | 263 | 0.0 | 0.0 | 0.00 | 0.00 | 0.00 | 68 | 1011.7 |
| 20260510001341 | 30 | 266 | 0.0 | 0.0 | 0.00 | 0.00 | 0.00 | 68 | 1011.5 |
| 20260510000836 | 30 | 262 | 0.0 | 0.0 | 0.00 | 0.00 | 0.00 | 66 | 1011.2 |
| 20260510000334 | 30 | 215 | 0.0 | 1.6 | 0.00 | 0.00 | 0.00 | 66 | 1011.1 |
| 20260509235830 | 31 | 282 | 0.0 | 0.0 | 0.00 | 0.00 | 0.00 | 67 | 1011.3 |
| 20260509235327 | 31 | 287 | 0.0 | 0.0 | 0.00 | 0.00 | 0.00 | 66 | 1011.2 |
| 20260509234823 | 31 | 295 | 0.0 | 0.0 | 0.00 | 0.00 | 0.00 | 66 | 1011.2 |
| 20260509234320 | 31 | 297 | 0.0 | 1.6 | 0.00 | 0.00 | 0.00 | 66 | 1011.5 |
| 20260509233818 | 31 | 269 | 0.0 | 0.0 | 0.00 | 0.00 | 0.00 | 65 | 1011.1 |
| 20260509233315 | 31 | 308 | 0.0 | 1.6 | 0.00 | 0.00 | 0.00 | 65 | 1011.5 |
| 20260509232811 | 31 | 288 | 0.0 | 1.6 | 0.00 | 0.00 | 0.00 | 65 | 1011.2 |
| 20260509232309 | 31 | 1 | 0.0 | 1.6 | 0.00 | 0.00 | 0.00 | 65 | 1011.3 |
| 20260509231805 | 31 | 237 | 0.0 | 0.0 | 0.00 | 0.00 | 0.00 | 64 | 1011.2 |
| 20260509231302 | 31 | 232 | 1.6 | 3.2 | 0.00 | 0.00 | 0.00 | 63 | 1011.3 |
| 20260509230800 | 32 | 250 | 0.0 | 0.0 | 0.00 | 0.00 | 0.00 | 62 | 1011.2 |
| 20260509230257 | 32 | 295 | 0.0 | 0.0 | 0.00 | 0.00 | 0.00 | 62 | 1011.2 |
| 20260509225751 | 32 | 313 | 0.0 | 0.0 | 0.00 | 0.00 | 0.00 | 61 | 1010.9 |
| 20260509225248 | 32 | 304 | 0.0 | 0.0 | 0.00 | 0.00 | 0.00 | 59 | 1010.8 |
| 20260509224743 | 33 | 310 | 0.0 | 1.6 | 0.00 | 0.00 | 0.00 | 58 | 1010.9 |
| 20260509224241 | 33 | 298 | 0.0 | 0.0 | 0.00 | 0.00 | 0.00 | 55 | 1011.1 |
| 20260509223738 | 32 | 340 | 0.0 | 0.0 | 0.00 | 0.00 | 0.00 | 58 | 1011.2 |
| 20260509223235 | 33 | 329 | 0.0 | 0.0 | 0.00 | 0.00 | 0.00 | 57 | 1011.0 |
| 20260509222731 | 33 | 311 | 0.0 | 0.0 | 0.00 | 0.00 | 0.00 | 58 | 1010.9 |
| 20260509222226 | 33 | 221 | 0.0 | 3.2 | 0.00 | 0.00 | 0.00 | 60 | 1011.2 |
| 20260509221722 | 33 | 305 | 1.6 | 3.2 | 0.00 | 0.00 | 0.00 | 60 | 1011.0 |
| 20260509221219 | 33 | 316 | 0.0 | 1.6 | 0.00 | 0.00 | 0.00 | 60 | 1010.6 |
| 20260509220715 | 33 | 317 | 1.6 | 1.6 | 0.00 | 0.00 | 0.00 | 60 | 1011.1 |
| 20260509220212 | 33 | 80 | 1.6 | 3.2 | 0.00 | 0.00 | 0.00 | 59 | 1011.0 |
| 20260509215707 | 33 | 292 | 1.6 | 3.2 | 0.00 | 0.00 | 0.00 | 60 | 1010.8 |
| 20260509215204 | 33 | 287 | 0.0 | 1.6 | 0.00 | 0.00 | 0.00 | 61 | 1011.0 |
| 20260509214701 | 33 | 49 | 1.6 | 3.2 | 0.00 | 0.00 | 0.00 | 60 | 1010.9 |
| 20260509214158 | 34 | 315 | 1.6 | 1.6 | 0.00 | 0.00 | 0.00 | 58 | 1011.0 |
| 20260509213655 | 33 | 7 | 1.6 | 3.2 | 0.00 | 0.00 | 0.00 | 56 | 1011.0 |
| 20260509213150 | 33 | 241 | 3.2 | 4.8 | 0.00 | 0.00 | 0.00 | 57 | 1011.0 |
| 20260509212648 | 33 | 291 | 1.6 | 1.6 | 0.00 | 0.00 | 0.00 | 59 | 1011.2 |
| 20260509212144 | 33 | 320 | 1.6 | 1.6 | 0.00 | 0.00 | 0.00 | 62 | 1011.1 |
| 20260509211635 | 32 | 74 | 0.0 | 1.6 | 0.00 | 0.00 | 0.00 | 63 | 1010.9 |
| 20260509211132 | 32 | 30 | 1.6 | 4.8 | 0.00 | 0.00 | 0.00 | 63 | 1011.0 |
| 20260509210629 | 32 | 290 | 0.0 | 1.6 | 0.00 | 0.00 | 0.00 | 62 | 1010.8 |
| 20260509210126 | 33 | 9 | 0.0 | 1.6 | 0.00 | 0.00 | 0.00 | 64 | 1011.4 |
| 20260509205621 | 32 | 257 | 3.2 | 3.2 | 0.00 | 0.00 | 0.00 | 64 | 1011.1 |
| 20260509205115 | 32 | 273 | 0.0 | 4.8 | 0.00 | 0.00 | 0.00 | 65 | 1011.5 |
| 20260509204612 | 32 | 243 | 1.6 | 1.6 | 0.00 | 0.00 | 0.00 | 63 | 1011.6 |
| 20260509204108 | 31 | 314 | 1.6 | 1.6 | 0.00 | 0.00 | 0.00 | 67 | 1011.7 |
| 20260509203604 | 32 | 293 | 0.0 | 3.2 | 0.00 | 0.00 | 0.00 | 67 | 1011.8 |
| 20260509203103 | 32 | 107 | 1.6 | 3.2 | 0.00 | 0.00 | 0.00 | 64 | 1011.8 |
| 20260509202557 | 32 | 284 | 0.0 | 1.6 | 0.00 | 0.00 | 0.00 | 64 | 1011.9 |
| 20260509202053 | 31 | 17 | 1.6 | 3.2 | 0.00 | 0.00 | 0.00 | 66 | 1011.7 |
| 20260509201547 | 32 | 69 | 1.6 | 3.2 | 0.00 | 0.00 | 0.00 | 65 | 1011.7 |
| 20260509201045 | 32 | 311 | 0.0 | 3.2 | 0.00 | 0.00 | 0.00 | 65 | 1011.8 |
| 20260509200539 | 32 | 293 | 1.6 | 3.2 | 0.00 | 0.00 | 0.00 | 64 | 1012.0 |
| 20260509200036 | 32 | 263 | 0.0 | 1.6 | 0.00 | 0.00 | 0.00 | 62 | 1011.9 |
| 20260509195532 | 32 | 293 | 0.0 | 3.2 | 0.00 | 0.00 | 0.00 | 64 | 1011.9 |
| 20260509195032 | 31 | 327 | 1.6 | 1.6 | 0.00 | 0.00 | 0.00 | 67 | 1012.2 |
| 20260509194527 | 32 | 284 | 0.0 | 1.6 | 0.00 | 0.00 | 0.00 | 64 | 1012.2 |
| 20260509194025 | 32 | 321 | 0.0 | 0.0 | 0.00 | 0.00 | 0.00 | 64 | 1012.1 |
| 20260509193525 | 32 | 207 | 0.0 | 3.2 | 0.00 | 0.00 | 0.00 | 66 | 1012.3 |
| 20260509193022 | 31 | 223 | 1.6 | 8.0 | 0.00 | 0.00 | 0.00 | 67 | 1012.1 |
| 20260509192518 | 32 | 181 | 3.2 | 8.0 | 0.00 | 0.00 | 0.00 | 64 | 1012.4 |
| 20260509192013 | 32 | 310 | 0.0 | 3.2 | 0.00 | 0.00 | 0.00 | 65 | 1012.3 |
| 20260509191508 | 31 | 289 | 0.0 | 3.2 | 0.00 | 0.00 | 0.00 | 66 | 1012.5 |
| 20260509191004 | 32 | 250 | 3.2 | 4.8 | 0.00 | 0.00 | 0.00 | 66 | 1012.7 |
| 20260509190501 | 31 | 276 | 3.2 | 3.2 | 0.00 | 0.00 | 0.00 | 65 | 1012.4 |
| 20260509185959 | 31 | 315 | 0.0 | 1.6 | 0.00 | 0.00 | 0.00 | 66 | 1012.3 |
| 20260509185456 | 31 | 253 | 0.0 | 3.2 | 0.00 | 0.00 | 0.00 | 65 | 1012.6 |
| 20260509184952 | 30 | 208 | 0.0 | 3.2 | 0.00 | 0.00 | 0.00 | 67 | 1012.6 |
| 20260509184451 | 30 | 263 | 1.6 | 3.2 | 0.00 | 0.00 | 0.00 | 69 | 1012.7 |
| 20260509183947 | 30 | 216 | 3.2 | 4.8 | 0.00 | 0.00 | 0.00 | 70 | 1013.1 |
| 20260509183441 | 30 | 297 | 0.0 | 3.2 | 0.00 | 0.00 | 0.00 | 70 | 1012.9 |
| 20260509182938 | 30 | 320 | 0.0 | 3.2 | 0.00 | 0.00 | 0.00 | 70 | 1013.0 |
| 20260509182434 | 30 | 26 | 3.2 | 8.0 | 0.00 | 0.00 | 0.00 | 71 | 1013.2 |
| 20260509181931 | 30 | 286 | 1.6 | 3.2 | 0.00 | 0.00 | 0.00 | 72 | 1013.3 |
| 20260509181430 | 30 | 157 | 1.6 | 3.2 | 0.00 | 0.00 | 0.00 | 73 | 1013.1 |
| 20260509180927 | 30 | 233 | 1.6 | 3.2 | 0.00 | 0.00 | 0.00 | 73 | 1013.3 |
| 20260509180422 | 29 | 293 | 0.0 | 1.6 | 0.00 | 0.00 | 0.00 | 75 | 1013.3 |
| 20260509175919 | 29 | 309 | 0.0 | 1.6 | 0.00 | 0.00 | 0.00 | 75 | 1013.6 |
| 20260509175415 | 29 | 114 | 1.6 | 3.2 | 0.00 | 0.00 | 0.00 | 75 | 1013.6 |
| 20260509174911 | 29 | 294 | 1.6 | 4.8 | 0.00 | 0.00 | 0.00 | 75 | 1013.7 |
| 20260509174408 | 29 | 143 | 1.6 | 4.8 | 0.00 | 0.00 | 0.00 | 75 | 1013.6 |
| 20260509173903 | 30 | 83 | 3.2 | 4.8 | 0.00 | 0.00 | 0.00 | 75 | 1013.5 |
| 20260509173358 | 30 | 301 | 3.2 | 8.0 | 0.00 | 0.00 | 0.00 | 75 | 1013.6 |
| 20260509172854 | 29 | 241 | 1.6 | 12.9 | 0.00 | 0.00 | 0.00 | 77 | 1013.8 |
| 20260509172351 | 29 | 317 | 0.0 | 4.8 | 0.00 | 0.00 | 0.00 | 77 | 1013.9 |
| 20260509171847 | 29 | 161 | 4.8 | 4.8 | 0.00 | 0.00 | 0.00 | 77 | 1013.7 |
| 20260509171343 | 29 | 189 | 3.2 | 4.8 | 0.00 | 0.00 | 0.00 | 76 | 1013.5 |
| 20260509170840 | 28 | 279 | 0.0 | 1.6 | 0.00 | 0.00 | 0.00 | 78 | 1013.6 |
| 20260509170336 | 28 | 351 | 0.0 | 1.6 | 0.00 | 0.00 | 0.00 | 79 | 1013.4 |
| 20260509165830 | 28 | 227 | 1.6 | 8.0 | 0.00 | 0.00 | 0.00 | 79 | 1013.6 |
| 20260509165325 | 28 | 292 | 1.6 | 3.2 | 0.00 | 0.00 | 0.00 | 79 | 1013.5 |
| 20260509164821 | 27 | 216 | 0.0 | 3.2 | 0.00 | 0.00 | 0.00 | 81 | 1013.5 |
| 20260509164318 | 27 | 297 | 0.0 | 1.6 | 0.00 | 0.00 | 0.00 | 82 | 1013.6 |
| 20260509163814 | 27 | 278 | 0.0 | 3.2 | 0.00 | 0.00 | 0.00 | 83 | 1013.6 |
| 20260509163310 | 26 | 234 | 1.6 | 1.6 | 0.00 | 0.00 | 0.00 | 83 | 1013.5 |
| 20260509162810 | 26 | 35 | 0.0 | 1.6 | 0.00 | 0.00 | 0.00 | 83 | 1014.0 |
| 20260509162306 | 26 | 209 | 0.0 | 3.2 | 0.00 | 0.00 | 0.00 | 83 | 1013.9 |
| 20260509161759 | 27 | 210 | 1.6 | 1.6 | 0.00 | 0.00 | 0.00 | 83 | 1014.1 |
| 20260509161255 | 26 | 240 | 0.0 | 0.0 | 0.00 | 0.00 | 0.00 | 84 | 1014.1 |
| 20260509160751 | 26 | 310 | 0.0 | 0.0 | 0.00 | 0.00 | 0.00 | 85 | 1014.1 |
| 20260509160247 | 26 | 317 | 0.0 | 0.0 | 0.00 | 0.00 | 0.00 | 86 | 1014.1 |
| 20260509155742 | 26 | 285 | 1.6 | 1.6 | 0.00 | 0.00 | 0.00 | 86 | 1014.0 |
| 20260509155239 | 26 | 316 | 0.0 | 0.0 | 0.00 | 0.00 | 0.00 | 87 | 1013.9 |
| 20260509154735 | 26 | 328 | 0.0 | 0.0 | 0.00 | 0.00 | 0.00 | 87 | 1014.0 |
| 20260509154232 | 26 | 298 | 0.0 | 0.0 | 0.00 | 0.00 | 0.00 | 87 | 1014.1 |
| 20260509153729 | 26 | 294 | 0.0 | 0.0 | 0.00 | 0.00 | 0.00 | 86 | 1014.1 |
| 20260509153220 | 26 | 314 | 0.0 | 0.0 | 0.00 | 0.00 | 0.00 | 86 | 1014.2 |
| 20260509152716 | 26 | 303 | 0.0 | 0.0 | 0.00 | 0.00 | 0.00 | 87 | 1014.2 |
| 20260509152213 | 25 | 292 | 0.0 | 0.0 | 0.00 | 0.00 | 0.00 | 88 | 1014.2 |
| 20260509151710 | 25 | 280 | 0.0 | 1.6 | 0.00 | 0.00 | 0.00 | 88 | 1014.3 |
| 20260509151207 | 25 | 276 | 0.0 | 1.6 | 0.00 | 0.00 | 0.00 | 89 | 1013.8 |
| 20260509150705 | 25 | 308 | 0.0 | 0.0 | 0.00 | 0.00 | 0.00 | 91 | 1014.3 |
| 20260509150203 | 25 | 211 | 0.0 | 1.6 | 0.00 | 0.00 | 0.00 | 91 | 1014.0 |
| 20260509145659 | 25 | 320 | 0.0 | 0.0 | 0.00 | 0.00 | 0.00 | 92 | 1013.8 |
| 20260509145154 | 24 | 310 | 0.0 | 0.0 | 0.00 | 0.00 | 0.00 | 93 | 1013.7 |
| 20260509144651 | 24 | 291 | 0.0 | 0.0 | 0.00 | 0.00 | 0.00 | 94 | 1013.7 |
| 20260509144148 | 24 | 337 | 0.0 | 0.0 | 0.00 | 0.00 | 0.00 | 94 | 1013.7 |
| 20260509143645 | 24 | 318 | 0.0 | 0.0 | 0.00 | 0.00 | 0.00 | 95 | 1013.8 |
| 20260509143143 | 24 | 264 | 0.0 | 0.0 | 0.00 | 0.00 | 0.00 | 95 | 1013.7 |
| 20260509142638 | 24 | 309 | 0.0 | 0.0 | 0.00 | 0.00 | 0.00 | 95 | 1013.7 |
| 20260509142135 | 23 | 310 | 0.0 | 0.0 | 0.00 | 0.00 | 0.00 | 96 | 1013.9 |
| 20260509141630 | 23 | 310 | 0.0 | 0.0 | 0.00 | 0.00 | 0.00 | 96 | 1013.5 |
| 20260509141127 | 23 | 285 | 0.0 | 0.0 | 0.00 | 0.00 | 0.00 | 96 | 1013.4 |
| 20260509140624 | 23 | 350 | 0.0 | 0.0 | 0.00 | 0.00 | 0.00 | 96 | 1013.1 |
| 20260509140122 | 23 | 313 | 0.0 | 0.0 | 0.00 | 0.00 | 0.00 | 96 | 1013.5 |
| 20260509135619 | 23 | 297 | 0.0 | 0.0 | 0.00 | 0.00 | 0.00 | 96 | 1013.7 |
| 20260509135117 | 23 | 313 | 0.0 | 0.0 | 0.00 | 0.00 | 0.00 | 96 | 1013.3 |
| 20260509134613 | 23 | 187 | 0.0 | 0.0 | 0.00 | 0.00 | 0.00 | 97 | 1013.5 |
| 20260509134111 | 23 | 39 | 0.0 | 0.0 | 0.00 | 0.00 | 0.00 | 97 | 1013.5 |
| 20260509133608 | 23 | 341 | 0.0 | 0.0 | 0.00 | 0.00 | 0.00 | 97 | 1013.8 |
| 20260509133105 | 23 | 312 | 0.0 | 0.0 | 0.00 | 0.00 | 0.00 | 97 | 1013.9 |
| 20260509132603 | 23 | 316 | 1.6 | 3.2 | 0.00 | 0.00 | 0.00 | 97 | 1013.9 |
| 20260509132102 | 23 | 275 | 1.6 | 3.2 | 0.00 | 0.00 | 0.00 | 97 | 1013.9 |
| 20260509131557 | 23 | 280 | 0.0 | 0.0 | 0.00 | 0.00 | 0.00 | 97 | 1013.8 |
| 20260509131054 | 23 | 269 | 0.0 | 0.0 | 0.00 | 0.00 | 0.00 | 97 | 1014.0 |
| 20260509130550 | 23 | 263 | 0.0 | 0.0 | 0.00 | 0.00 | 0.00 | 97 | 1014.1 |
| 20260509130047 | 23 | 328 | 0.0 | 0.0 | 0.00 | 0.00 | 0.00 | 97 | 1014.1 |
| 20260509125543 | 23 | 313 | 0.0 | 0.0 | 0.00 | 0.00 | 0.00 | 97 | 1014.4 |
| 20260509125040 | 23 | 322 | 0.0 | 0.0 | 0.00 | 0.00 | 0.00 | 97 | 1014.2 |
| 20260509124536 | 23 | 307 | 0.0 | 0.0 | 0.00 | 0.00 | 0.00 | 97 | 1014.4 |
| 20260509124034 | 23 | 306 | 0.0 | 0.0 | 0.00 | 0.00 | 0.00 | 97 | 1014.0 |
| 20260509123532 | 23 | 307 | 0.0 | 0.0 | 0.00 | 0.00 | 0.00 | 97 | 1013.8 |
| 20260509123027 | 22 | 290 | 0.0 | 0.0 | 0.00 | 0.00 | 0.00 | 97 | 1014.0 |
| 20260509122523 | 22 | 288 | 0.0 | 0.0 | 0.00 | 0.00 | 0.00 | 97 | 1013.8 |
| 20260509122020 | 22 | 245 | 0.0 | 0.0 | 0.00 | 0.00 | 0.00 | 97 | 1013.7 |
| 20260509121512 | 22 | 274 | 0.0 | 0.0 | 0.00 | 0.00 | 0.00 | 97 | 1013.6 |
| 20260509121010 | 22 | 278 | 0.0 | 0.0 | 0.00 | 0.00 | 0.00 | 97 | 1013.4 |
| 20260509120508 | 22 | 265 | 0.0 | 0.0 | 0.00 | 0.00 | 0.00 | 97 | 1013.3 |
| 20260509120006 | 22 | 299 | 0.0 | 0.0 | 0.00 | 0.00 | 0.00 | 97 | 1013.3 |
| 20260509115503 | 22 | 271 | 0.0 | 0.0 | 0.00 | 0.00 | 0.00 | 97 | 1013.1 |
| 20260509115000 | 22 | 303 | 0.0 | 0.0 | 0.00 | 0.00 | 0.00 | 97 | 1013.0 |
| 20260509114458 | 22 | 288 | 0.0 | 0.0 | 0.00 | 0.00 | 0.00 | 97 | 1013.3 |
| 20260509113957 | 22 | 274 | 0.0 | 0.0 | 0.00 | 0.00 | 0.00 | 97 | 1013.3 |
| 20260509113454 | 22 | 288 | 0.0 | 0.0 | 0.00 | 0.00 | 0.00 | 97 | 1013.5 |
| 20260509112951 | 22 | 290 | 0.0 | 0.0 | 0.00 | 0.00 | 0.00 | 97 | 1013.5 |
| 20260509112448 | 22 | 245 | 0.0 | 0.0 | 0.00 | 0.00 | 0.00 | 97 | 1013.4 |
| 20260509111944 | 22 | 290 | 0.0 | 0.0 | 0.00 | 0.00 | 0.00 | 97 | 1013.6 |
| 20260509111442 | 22 | 285 | 0.0 | 0.0 | 0.00 | 0.00 | 0.00 | 97 | 1013.7 |
| 20260509110940 | 22 | 294 | 0.0 | 0.0 | 0.00 | 0.00 | 0.00 | 97 | 1014.1 |
| 20260509110435 | 22 | 314 | 0.0 | 0.0 | 0.00 | 0.00 | 0.00 | 97 | 1013.8 |
| 20260509105934 | 22 | 293 | 0.0 | 0.0 | 0.00 | 0.00 | 0.00 | 97 | 1013.7 |
| 20260509105432 | 22 | 299 | 0.0 | 0.0 | 0.00 | 0.00 | 0.00 | 97 | 1013.5 |
| 20260509104929 | 22 | 310 | 0.0 | 0.0 | 0.00 | 0.00 | 0.00 | 97 | 1013.6 |
| 20260509104426 | 22 | 322 | 0.0 | 0.0 | 0.00 | 0.00 | 0.00 | 97 | 1013.5 |
| 20260509103923 | 22 | 315 | 0.0 | 1.6 | 0.00 | 0.00 | 0.00 | 97 | 1013.6 |
| 20260509103420 | 22 | 319 | 0.0 | 0.0 | 0.00 | 0.00 | 0.00 | 97 | 1013.5 |
| 20260509102918 | 22 | 319 | 0.0 | 0.0 | 0.00 | 0.00 | 0.00 | 97 | 1013.3 |
| 20260509102415 | 22 | 302 | 0.0 | 0.0 | 0.00 | 0.00 | 0.00 | 97 | 1013.1 |
| 20260509101911 | 22 | 301 | 0.0 | 0.0 | 0.00 | 0.00 | 0.00 | 97 | 1013.2 |
| 20260509101408 | 22 | 293 | 0.0 | 0.0 | 0.00 | 0.00 | 0.00 | 97 | 1012.8 |
| 20260509100905 | 22 | 319 | 0.0 | 0.0 | 0.00 | 0.00 | 0.00 | 96 | 1012.7 |
| 20260509100402 | 22 | 322 | 0.0 | 0.0 | 0.00 | 0.00 | 0.00 | 96 | 1012.6 |
| 20260509095859 | 22 | 263 | 0.0 | 0.0 | 0.00 | 0.00 | 0.00 | 96 | 1012.4 |
| 20260509095356 | 22 | 298 | 0.0 | 0.0 | 0.00 | 0.00 | 0.00 | 96 | 1012.4 |
| 20260509094853 | 22 | 244 | 0.0 | 1.6 | 0.00 | 0.00 | 0.00 | 96 | 1012.3 |
| 20260509094350 | 22 | 314 | 0.0 | 0.0 | 0.00 | 0.00 | 0.00 | 96 | 1012.6 |
| 20260509093848 | 22 | 324 | 0.0 | 1.6 | 0.00 | 0.00 | 0.00 | 96 | 1012.8 |
| 20260509093344 | 22 | 306 | 0.0 | 0.0 | 0.00 | 0.00 | 0.00 | 96 | 1012.9 |
| 20260509092843 | 23 | 289 | 0.0 | 0.0 | 0.00 | 0.00 | 0.00 | 96 | 1013.0 |
| 20260509092340 | 23 | 247 | 0.0 | 0.0 | 0.00 | 0.00 | 0.00 | 96 | 1013.1 |
| 20260509091838 | 23 | 316 | 0.0 | 0.0 | 0.00 | 0.00 | 0.00 | 96 | 1013.2 |
| 20260509091335 | 23 | 313 | 0.0 | 0.0 | 0.00 | 0.00 | 0.00 | 96 | 1013.2 |
| 20260509090832 | 23 | 325 | 0.0 | 0.0 | 0.00 | 0.00 | 0.00 | 96 | 1013.0 |
| 20260509090330 | 23 | 294 | 0.0 | 0.0 | 0.00 | 0.00 | 0.00 | 96 | 1013.0 |
| 20260509085827 | 23 | 298 | 0.0 | 0.0 | 0.00 | 0.00 | 0.00 | 96 | 1013.3 |
| 20260509085324 | 23 | 301 | 0.0 | 0.0 | 0.00 | 0.00 | 0.00 | 96 | 1013.2 |
| 20260509084820 | 23 | 297 | 0.0 | 0.0 | 0.00 | 0.00 | 0.00 | 96 | 1013.1 |
| 20260509084317 | 23 | 297 | 0.0 | 0.0 | 0.00 | 0.00 | 0.00 | 96 | 1013.3 |
| 20260509083815 | 23 | 294 | 0.0 | 0.0 | 0.00 | 0.00 | 0.00 | 96 | 1013.1 |
| 20260509083312 | 23 | 299 | 0.0 | 0.0 | 0.00 | 0.00 | 0.00 | 96 | 1013.1 |
| 20260509082808 | 23 | 294 | 0.0 | 0.0 | 0.00 | 0.00 | 0.00 | 96 | 1013.0 |
| 20260509082307 | 23 | 294 | 0.0 | 0.0 | 0.00 | 0.00 | 0.00 | 96 | 1013.3 |
| 20260509081802 | 23 | 280 | 0.0 | 0.0 | 0.00 | 0.00 | 0.00 | 96 | 1013.3 |
| 20260509081259 | 23 | 248 | 0.0 | 0.0 | 0.00 | 0.00 | 0.00 | 96 | 1012.7 |
| 20260509080758 | 23 | 235 | 0.0 | 0.0 | 0.00 | 0.00 | 0.00 | 96 | 1012.9 |
| 20260509080255 | 23 | 265 | 0.0 | 0.0 | 0.00 | 0.00 | 0.00 | 96 | 1012.8 |
| 20260509075753 | 23 | 152 | 0.0 | 1.6 | 0.00 | 0.00 | 0.00 | 96 | 1012.8 |
| 20260509075250 | 23 | 283 | 0.0 | 0.0 | 0.00 | 0.00 | 0.00 | 96 | 1012.9 |
| 20260509074747 | 23 | 263 | 0.0 | 0.0 | 0.00 | 0.00 | 0.00 | 96 | 1013.1 |
| 20260509074245 | 23 | 269 | 0.0 | 0.0 | 0.00 | 0.00 | 0.00 | 96 | 1013.1 |
| 20260509073740 | 23 | 345 | 0.0 | 0.0 | 0.00 | 0.00 | 0.00 | 95 | 1013.2 |
| 20260509073237 | 22 | 315 | 0.0 | 0.0 | 0.00 | 0.00 | 0.00 | 95 | 1013.2 |
| 20260509072734 | 22 | 254 | 0.0 | 0.0 | 0.00 | 0.00 | 0.00 | 95 | 1013.0 |
| 20260509072230 | 22 | 276 | 0.0 | 0.0 | 0.00 | 0.00 | 0.00 | 95 | 1013.3 |
| 20260509071727 | 22 | 8 | 0.0 | 0.0 | 0.00 | 0.00 | 0.00 | 95 | 1013.4 |
| 20260509071224 | 22 | 320 | 0.0 | 0.0 | 0.00 | 0.00 | 0.00 | 95 | 1013.2 |
| 20260509070721 | 22 | 319 | 0.0 | 0.0 | 0.00 | 0.00 | 0.00 | 95 | 1013.1 |
| 20260509070218 | 22 | 282 | 0.0 | 0.0 | 0.00 | 0.00 | 0.00 | 95 | 1013.1 |
| 20260509065714 | 22 | 322 | 0.0 | 0.0 | 0.00 | 0.00 | 0.00 | 95 | 1013.3 |
| 20260509065210 | 22 | 322 | 0.0 | 0.0 | 0.00 | 0.00 | 0.00 | 95 | 1013.2 |
| 20260509064707 | 22 | 312 | 0.0 | 0.0 | 0.00 | 0.00 | 0.00 | 95 | 1013.4 |
| 20260509064205 | 22 | 240 | 0.0 | 0.0 | 0.00 | 0.00 | 0.00 | 95 | 1013.2 |
| 20260509063702 | 22 | 275 | 0.0 | 0.0 | 0.00 | 0.00 | 0.00 | 95 | 1013.1 |
| 20260509063158 | 22 | 303 | 0.0 | 0.0 | 0.00 | 0.00 | 0.00 | 95 | 1013.3 |
| 20260509062655 | 22 | 291 | 0.0 | 0.0 | 0.00 | 0.00 | 0.00 | 95 | 1013.5 |
| 20260509062152 | 22 | 288 | 0.0 | 0.0 | 0.00 | 0.00 | 0.00 | 95 | 1013.7 |
| 20260509061649 | 22 | 291 | 0.0 | 0.0 | 0.00 | 0.00 | 0.00 | 95 | 1013.7 |